User: anonymous   Login
Location: Columbia
(38.9520°N, 92.3340°W)
Time: 14:46:19
(UTC-05:00)
Language:

SJ-11-01 - Orbit

View from above orbital plane
View from above orbital plane
View from above satellite
View from above satellite

Ground track
Ground track

The orbit data is extracted from the following two-line orbital elements,

1 36088U 09061A   15188.40941474  .00000264  00000-0  65201-4 0  9997
2 36088 098.2353 234.1900 0010578 328.5239 031.5316 14.59658074300943
Epoch (UTC): 07 July 2015 09:49:33
Eccentricity: 0.0010578
inclination: 98.2353°
perigee height: 687 km
apogee height: 702 km
right ascension of ascending node: 234.1900°
argument of perigee: 328.5239°
revolutions per day: 14.59658074
mean anomaly at epoch: 31.5316°
orbit number at epoch: 30094

The dashed part of the orbit path shows where the satellite is in the earth's shadow,  

DLR